DW1824 Weather Reports


time (UTC)temp
C
wind
direction
speed
KPH
gust
KPH
rain 1hr
cm
rain 24hr
cm
rain mn
cm
humidity
%
barometer
mb
20260905004400 30 143 1.6 1.6 0.03 0.03 0.03 68 1012.5
20260905003342 31 127 0.0 1.6 0.00 0.00 0.00 68 1012.3
20260905002328 31 127 1.6 3.2 0.00 0.00 0.00 65 1012.3
20260905001333 31 122 1.6 3.2 0.00 0.00 0.00 64 1012.3
20260905000356 31 136 1.6 6.4 0.00 0.00 0.00 62 1012.3
20260904235341 32 139 3.2 9.7 0.00 0.00 0.00 62 1012.1
20260904234331 32 124 4.8 8.0 0.00 0.00 0.00 60 1012.1
20260904233334 32 137 3.2 9.7 0.00 0.00 0.00 64 1012.0
20260904232340 32 138 4.8 11.3 0.00 0.00 0.00 64 1012.0
20260904231344 32 133 6.4 12.9 0.00 0.00 0.00 63 1011.9
20260904230346 32 112 1.6 6.4 0.00 0.00 0.00 63 1012.1
20260904225327 32 126 1.6 4.8 0.00 0.00 0.00 62 1012.1
20260904224332 32 39 0.0 3.2 0.00 0.00 0.00 63 1012.1
20260904223334 32 129 1.6 3.2 0.00 0.00 0.00 63 1012.3
20260904222339 32 129 1.6 4.8 0.00 0.00 0.00 66 1012.5
20260904221328 32 126 1.6 6.4 0.00 0.00 0.00 66 1012.5
20260904220352 32 120 3.2 9.7 0.00 0.00 0.00 67 1012.5
20260904215335 31 147 0.0 3.2 0.00 0.00 0.00 68 1012.6
20260904214342 32 129 3.2 4.8 0.00 0.00 0.00 68 1012.6
20260904213326 32 360 0.0 8.0 0.00 0.00 0.00 69 1012.7
20260904212351 32 137 1.6 3.2 0.00 0.00 0.00 68 1012.8
20260904211333 32 34 0.0 3.2 0.00 0.00 0.00 68 1012.8
20260904210337 31 83 1.6 6.4 0.00 0.00 0.00 69 1013.0
20260904205327 31 322 0.0 3.2 0.00 0.00 0.00 70 1013.1
20260904204333 31 111 0.0 3.2 0.00 0.00 0.00 71 1013.3
20260904203333 31 86 0.0 4.8 0.00 0.00 0.00 72 1013.4
20260904202339 30 360 0.0 0.0 0.00 0.00 0.00 73 1013.4
20260904201344 30 39 0.0 4.8 0.00 0.00 0.00 74 1013.6
20260904200330 30 44 0.0 4.8 0.00 0.00 0.00 75 1013.8
20260904195356 29 34 0.0 0.0 0.00 0.00 0.00 76 1013.9
20260904194325 28 105 0.0 4.8 0.00 0.00 0.00 76 1014.2
20260904193345 28 91 0.0 1.6 0.00 0.00 0.00 77 1014.2
20260904192330 28 118 0.0 3.2 0.00 0.00 0.00 75 1014.3
20260904191332 28 70 0.0 1.6 0.00 0.00 0.00 75 1014.2
20260904190335 28 131 0.0 3.2 0.00 0.00 0.00 76 1014.3
20260904185342 28 360 0.0 1.6 0.00 0.00 0.00 77 1014.5
20260904184328 28 54 0.0 1.6 0.00 0.00 0.00 79 1014.8
20260904183330 28 70 0.0 8.0 0.00 0.00 0.00 80 1015.0
20260904182356 28 50 0.0 1.6 0.00 0.00 0.00 80 1015.2
20260904181344 28 135 0.0 1.6 0.00 0.00 0.00 79 1015.2
20260904180327 29 348 0.0 9.7 0.00 0.00 0.00 77 1015.0
20260904175334 30 60 0.0 3.2 0.00 0.00 0.00 76 1015.1
20260904174340 30 18 0.0 0.0 0.00 0.00 0.00 76 1015.2
20260904173342 30 330 0.0 0.0 0.00 0.00 0.00 76 1015.2
20260904172344 30 330 0.0 1.6 0.00 0.00 0.00 76 1015.4
20260904171330 30 281 0.0 0.0 0.00 0.00 0.00 78 1015.4
20260904170339 29 270 0.0 0.0 0.00 0.00 0.00 77 1015.3
20260904165344 29 266 0.0 0.0 0.00 0.00 0.00 77 1015.4
20260904164328 29 266 0.0 4.8 0.00 0.00 0.00 74 1015.5
20260904163331 29 182 0.0 3.2 0.00 0.00 0.00 73 1015.6
20260904162337 28 220 0.0 1.6 0.00 0.00 0.00 76 1015.3
20260904161342 27 291 1.6 8.0 0.00 0.00 0.00 76 1015.0
20260904160324 27 222 3.2 11.3 0.00 0.00 0.00 82 1015.4
20260904155334 27 261 0.0 11.3 0.00 0.00 0.00 78 1015.1
20260904154357 30 328 0.0 3.2 0.00 0.00 0.00 82 1014.8
20260904153339 30 140 1.6 4.8 0.00 0.00 0.00 82 1014.8
20260904152324 30 138 0.0 6.4 0.00 0.00 0.00 83 1014.8
20260904151330 30 135 1.6 6.4 0.00 0.00 0.00 82 1014.8
20260904150331 30 135 0.0 0.0 0.00 0.00 0.00 83 1014.8
20260904145336 29 160 0.0 0.0 0.00 0.00 0.00 85 1014.7
20260904144326 28 160 0.0 0.0 0.00 0.00 0.00 85 1014.7
20260904143331 28 160 0.0 0.0 0.00 0.00 0.00 85 1014.7
20260904142335 28 160 0.0 0.0 0.00 0.00 0.00 86 1014.6
20260904141339 28 128 0.0 0.0 0.00 0.00 0.00 87 1014.5
20260904140342 28 122 0.0 0.0 0.00 0.00 0.00 88 1014.6
20260904135329 27 139 0.0 0.0 0.00 0.00 0.00 89 1014.7
20260904134333 27 122 0.0 0.0 0.00 0.00 0.00 90 1014.5
20260904133336 27 117 0.0 0.0 0.00 0.00 0.00 91 1014.4
20260904132344 27 128 0.0 0.0 0.00 0.00 0.00 92 1014.3
20260904131330 26 128 0.0 0.0 0.00 0.00 0.00 93 1014.1
20260904130334 26 128 0.0 0.0 0.00 0.00 0.00 93 1014.1
20260904125341 26 127 0.0 0.0 0.00 0.00 0.00 93 1014.1
20260904124344 26 128 0.0 0.0 0.00 0.00 0.00 93 1013.9
20260904123347 26 127 0.0 0.0 0.00 0.00 0.00 93 1013.8
20260904122349 26 128 0.0 0.0 0.00 0.00 0.00 92 1013.7
20260904121338 26 127 0.0 0.0 0.00 0.00 0.00 92 1013.6
20260904120343 26 128 0.0 0.0 0.00 0.00 0.00 92 1013.7
20260904115327 26 128 0.0 0.0 0.00 0.00 0.00 92 1013.5
20260904114333 26 128 0.0 0.0 0.00 0.00 0.00 92 1013.5
20260904113337 26 135 0.0 0.0 0.00 0.00 0.00 92 1013.4
20260904112342 26 133 0.0 0.0 0.00 0.00 0.00 92 1013.2
20260904111328 26 133 0.0 0.0 0.00 0.00 0.00 92 1013.2
20260904110337 26 128 0.0 0.0 0.00 0.00 0.00 92 1013.3
20260904105341 26 131 0.0 0.0 0.00 0.00 0.00 92 1013.3
20260904104325 26 143 0.0 4.8 0.00 0.00 0.00 92 1013.4
20260904103327 26 126 0.0 4.8 0.00 0.00 0.00 92 1013.1
20260904102332 26 132 3.2 4.8 0.00 0.00 0.00 92 1013.1
20260904101357 26 127 1.6 4.8 0.00 0.00 0.00 92 1013.0
20260904100339 26 133 1.6 4.8 0.00 0.00 0.00 92 1013.0
20260904095344 26 112 1.6 4.8 0.00 0.00 0.00 92 1012.9
20260904094331 26 123 0.0 0.0 0.00 0.00 0.00 92 1012.8
20260904093337 26 123 0.0 0.0 0.00 0.00 0.00 92 1012.7
20260904091326 26 123 0.0 0.0 0.00 0.00 0.00 93 1012.7
20260904090330 26 123 0.0 0.0 0.00 0.00 0.00 93 1012.7
20260904085357 26 123 0.0 0.0 0.00 0.00 0.00 92 1012.8
20260904084341 26 123 0.0 0.0 0.00 0.00 0.00 92 1012.9
20260904083338 26 123 0.0 0.0 0.00 0.00 0.00 92 1013.0
20260904082344 26 123 0.0 0.0 0.00 0.00 0.00 92 1013.0
20260904081332 26 128 0.0 0.0 0.00 0.00 0.00 92 1013.0
20260904080335 26 128 0.0 1.6 0.00 0.00 0.00 92 1013.0
20260904075341 26 134 1.6 3.2 0.00 0.00 0.00 92 1013.0
20260904074326 26 128 1.6 4.8 0.00 0.00 0.00 92 1013.1
20260904073328 26 129 3.2 4.8 0.00 0.00 0.00 92 1013.1
20260904072333 26 120 3.2 4.8 0.00 0.00 0.00 92 1013.1
20260904071337 26 120 3.2 4.8 0.00 0.00 0.00 92 1013.2
20260904070340 26 131 0.0 0.0 0.00 0.00 0.00 91 1013.4
20260904065327 26 130 0.0 1.6 0.00 0.00 0.00 91 1013.5
20260904064332 26 131 0.0 0.0 0.00 0.00 0.00 91 1013.6
20260904063331 26 131 0.0 1.6 0.00 0.00 0.00 91 1013.6
20260904062338 26 130 0.0 3.2 0.00 0.00 0.00 91 1013.5
20260904061341 27 128 0.0 3.2 0.00 0.00 0.00 91 1013.4
20260904060403 27 128 1.6 3.2 0.00 0.00 0.00 91 1013.4
20260904055327 27 122 0.0 4.8 0.00 0.00 0.00 90 1013.4
20260904054330 27 130 3.2 4.8 0.00 0.00 0.00 91 1013.3
20260904053330 27 131 1.6 3.2 0.00 0.00 0.00 91 1013.2
20260904052334 27 140 0.0 3.2 0.00 0.00 0.00 90 1013.1
20260904051341 27 149 1.6 6.4 0.00 0.00 0.00 90 1013.1
20260904050404 27 137 1.6 4.8 0.00 0.00 0.00 90 1013.1
20260904045348 27 137 3.2 4.8 0.00 0.00 0.13 90 1013.1
20260904044332 27 141 3.2 4.8 0.00 0.00 0.13 90 1013.1
20260904043355 27 147 0.0 0.0 0.00 0.00 0.13 90 1013.2
20260904042340 27 157 0.0 4.8 0.00 0.00 0.13 90 1013.2
20260904041344 27 139 1.6 6.4 0.00 0.00 0.13 90 1013.3
20260904040327 27 132 4.8 6.4 0.00 0.00 0.13 90 1013.3
20260904035333 27 128 3.2 6.4 0.00 0.00 0.13 90 1013.3
20260904034324 27 127 3.2 11.3 0.00 0.00 0.13 90 1013.3
20260904033328 27 144 3.2 6.4 0.00 0.00 0.13 90 1013.3
20260904032332 27 129 3.2 9.7 0.00 0.00 0.13 90 1013.3
20260904031339 26 129 3.2 6.4 0.00 0.00 0.13 90 1013.3
20260904030341 26 135 3.2 4.8 0.00 0.00 0.13 90 1013.2
20260904025326 26 135 0.0 0.0 0.00 0.00 0.05 90 1013.1
20260904024335 26 128 0.0 0.0 0.00 0.00 0.05 89 1013.1
20260904023339 26 130 0.0 1.6 0.00 0.00 0.05 89 1013.0
20260904022344 26 143 1.6 6.4 0.00 0.00 0.05 89 1012.9
20260904021328 26 133 3.2 6.4 0.00 0.00 0.05 88 1012.9
20260904020333 26 134 0.0 1.6 0.00 0.00 0.05 88 1012.8
20260904015338 26 135 0.0 4.8 0.00 0.00 0.05 88 1012.7
20260904014344 26 172 3.2 4.8 0.00 0.00 0.05 87 1012.5
20260904013344 26 135 0.0 0.0 0.00 0.00 0.05 87 1012.4
20260904012333 26 107 0.0 1.6 0.00 0.00 0.05 86 1012.4
20260904011358 26 112 0.0 3.2 0.00 0.00 0.05 86 1012.4
20260904010339 26 116 1.6 3.2 0.00 0.00 0.05 85 1012.3
20260904005325 27 82 0.0 3.2 0.00 0.00 0.05 85 1012.3